E C 2000 2004 09 03.9911 5.486909 0.310081 21.8410 124.9744 10.5515 6.5 10.0
C/2004 B1 (LINEAR)
E C 2000 2006 02 07.5561 1.608429 1.001207 328.0408 272.8732 114.0880 10.5 5.0
C/2004 D1 (NEAT)
E C 2000 2006 02 09.7505 4.972244 0.998209 75.4933 62.2350 45.5753 11.5 5.0
P/2004 F3 (NEAT)
E C 2000 2013 01 29.1869 2.873608 0.285649 176.4275 78.8178 15.9778 9.0 10.0
P/2004 FY140 (LINEAR)
E C 2000 2004 07 31.5664 4.110941 0.166943 239.4604 327.1793 2.1266 12.5 5.0
P/2004 HC18 (LINEAR)
E C 2000 2010 12 29.5782 1.713755 0.509311 30.9829 219.4946 23.4905 16.5 5.0
P/2004 R1 (McNaught)
E C 2000 2010 02 23.6562 0.985688 0.682744 0.6859 295.9647 4.8937 18.5 10.0
C/2005 EL173 (LONEOS)
E C 2000 2007 03 05.0280 3.888912 1.001540 261.4873 344.8129 130.6735 11.5 5.0
P/2005 JQ5 (Catalina)
E C 2000 2009 12 28.8497 0.823087 0.694235 222.7430 95.8324 5.6954 17.5 10.0
P/2005 L1 (McNaught)
E C 2000 2013 11 23.2160 3.150444 0.208535 149.9551 138.3037 7.7358 9.5 10.0
C/2005 L3 (McNaught)
E C 2000 2008 01 16.9372 5.594782 1.000916 47.1949 288.7575 139.4477 4.0 10.0
P/2005 RV25 (LONEOS-Christensen)
E C 2000 2006 11 04.5807 3.600540 0.166660 191.2061 246.8783 9.8876 9.5 10.0
P/2005 S2 (Skiff)
E C 2000 2006 06 30.7418 6.398015 0.198633 229.9520 161.2031 3.1410 7.5 10.0
C/2005 S4 (McNaught)
E C 2000 2007 07 19.9712 5.854285 0.999437 31.5871 318.2889 107.9589 5.0 10.0
P/2005 SB216 (LONEOS)
E C 2000 2007 02 10.7563 3.811449 0.463597 83.3928 1.6744 24.1182 12.0 5.0
C/2006 E1 (McNaught)
E C 2000 2007 01 07.9768 6.044566 1.003313 232.8998 95.0508 83.1815 6.0 10.0
P/2006 F1 (Kowalski)
E C 2000 2008 02 18.7828 4.120268 0.118673 186.7775 124.7595 21.2750 8.0 10.0
C/2006 K4 (NEAT)
E C 2000 2007 11 29.6643 3.189702 0.998691 233.6735 116.6117 111.3342 6.0 10.0
C/2006 OF2 (Broughton)
E C 2000 2008 09 15.7611 2.431263 1.001474 95.6209 318.5064 30.1680 5.5 10.0
C/2006 Q1 (McNaught)
E C 2000 2008 07 03.7527 2.763578 0.999146 344.3644 199.5564 59.0539 5.0 10.0
C/2006 S3 (LONEOS)
E C 2000 2012 04 16.6943 5.135503 1.000994 140.0641 38.3385 166.0291 2.0 10.0
C/2006 U6 (Spacewatch)
E C 2000 2008 06 05.5682 2.497669 0.999087 276.5942 180.1828 84.8981 8.0 10.0
C/2006 W3 (Christensen)
E C 2000 2009 07 06.6278 3.126094 1.000373 133.5167 113.5828 127.0548 5.0 10.0
C/2007 B2 (Skiff)
E C 2000 2008 08 21.1140 2.977691 0.996346 206.1423 14.8208 27.4979 6.0 10.0
C/2007 D1 (LINEAR)
E C 2000 2007 06 15.5271 8.788560 0.994758 339.9941 171.0936 41.5474 3.5 10.0
C/2007 G1 (LINEAR)
E C 2000 2008 11 16.3509 2.647468 1.001664 224.0007 79.0023 88.3268 5.5 10.0
P/2007 H1 (McNaught)
E C 2000 2007 08 18.1020 2.282143 0.378390 202.7364 144.3643 11.8749 10.0 10.0
C/2007 M1 (McNaught)
E C 2000 2008 08 12.7555 7.476212 0.995920 52.7011 326.8070 139.7209 6.0 10.0
C/2007 M2 (Catalina)
E C 2000 2008 12 08.5287 3.541109 0.998512 220.6680 357.2914 80.9534 8.0 10.0
C/2007 N3 (Lulin)
E C 2000 2009 01 10.6469 1.211828 0.999998 136.8603 338.5489 178.3738 6.5 10.0
C/2007 Q3 (Siding Spring)
E C 2000 2009 10 07.2644 2.251633 1.000208 2.0880 149.4132 65.6502 4.5 10.0
P/2007 R1 (Larson)
E C 2000 2007 08 25.0157 4.354467 0.278517 175.3125 181.6407 7.8742 8.0 10.0
C/2007 S2 (Lemmon)
E C 2000 2008 09 13.6677 5.556688 0.556354 210.3846 296.2218 16.8563 6.5 10.0
C/2007 T5 (Gibbs)
E C 2000 2008 05 23.8151 4.048095 0.912302 34.3636 109.8298 45.6152 8.0 10.0
C/2007 U1 (LINEAR)
E C 2000 2008 08 07.1864 3.331797 1.001143 1.1232 50.1810 157.8021 9.0 10.0
C/2007 VO53 (Spacewatch)
E C 2000 2010 04 26.4259 4.842675 0.999774 75.0226 59.7405 86.9914 7.0 10.0
C/2008 A1 (McNaught)
E C 2000 2008 09 29.0928 1.073510 1.000346 348.4764 277.8961 82.5438 6.5 10.0
P/2008 CL94 (Lemmon)
E C 2000 2006 06 23.3354 5.425919 0.119666 81.4037 33.4527 8.3530 8.0 10.0
C/2008 E1 (Catalina)
E C 2000 2008 08 11.7607 4.828423 0.548696 269.9825 189.0071 35.0439 7.0 10.0
C/2008 E3 (Garradd)
E C 2000 2008 08 02.8100 5.532200 0.998698 218.1581 105.6825 105.0777 6.0 10.0
C/2008 FK75 (Lemmon-Siding Spring)
E C 2000 2010 09 29.1009 4.511274 1.002965 80.4009 218.2614 61.1718 5.0 10.0
C/2008 G1 (Gibbs)
E C 2000 2009 01 12.2418 3.989438 0.988586 63.7571 215.9177 72.8479 9.5 10.0
P/2008 J2 (Beshore)
E C 2000 2008 03 20.3501 2.399428 0.310004 131.4777 98.1538 10.2519 9.0 10.0
P/2008 J3 (McNaught)
E C 2000 2009 03 10.8271 2.287353 0.412467 4.4477 9.8525 25.3991 12.0 10.0
C/2008 N1 (Holmes)
E C 2000 2009 09 25.9042 2.783608 0.997322 100.8185 357.4716 115.5209 9.0 10.0
P/2008 O2 (McNaught)
E C 2000 2009 04 21.8137 3.804004 0.152789 27.5013 325.8593 9.5184 9.0 10.0
C/2008 P1 (Garradd)
E C 2000 2009 07 22.9634 3.896266 1.001321 11.8694 357.6789 64.3137 7.0 10.0
C/2008 Q1 (Maticic)
E C 2000 2008 12 30.2172 2.959302 0.995385 104.4953 9.3043 118.6339 10.0 10.0
C/2008 Q3 (Garradd)
E C 2000 2009 06 23.1056 1.798191 0.999820 340.8627 219.7372 140.7079 10.0 10.0
C/2008 S3 (Boattini)
E C 2000 2011 06 05.0724 8.020098 1.000839 39.8102 54.9322 162.7015 4.0 10.0
P/2008 T1 (Boattini)
E C 2000 2008 02 26.8724 3.044674 0.281092 35.9885 291.7676 2.0829 11.0 10.0
C/2008 T2 (Cardinal)
E C 2000 2009 06 13.2364 1.202372 1.000102 215.8756 309.6784 56.3035 6.0 10.0
P/2008 WZ96 (LINEAR)
E C 2000 2009 01 23.9638 1.646320 0.509932 337.6473 59.1013 6.9574 13.5 10.0
P/2008 Y3 (McNaught)
E C 2000 2009 01 11.5904 4.433900 0.447374 238.2465 262.9165 38.8122 8.5 10.0
C/2009 E1 (Itagaki)
E C 2000 2009 04 07.9216 0.599487 0.985045 48.9443 105.9645 127.4319 11.5 10.0
C/2009 F2 (McNaught)
E C 2000 2009 11 14.2727 5.875201 0.983243 336.3592 214.0564 59.3585 6.0 10.0
C/2009 F4 (McNaught)
E C 2000 2011 12 31.5589 5.455582 1.002893 260.3557 53.5660 79.3228 3.0 10.0
C/2009 F5 (McNaught)
E C 2000 2008 11 04.7970 2.245115 0.971709 297.3562 219.0683 84.9973 10.0 10.0
C/2009 F6 (Yi-SWAN)
E C 2000 2009 05 07.4311 1.274083 0.997512 129.7685 278.6763 85.7605 6.0 10.0
C/2009 G1 (STEREO)
E C 2000 2009 04 16.5059 1.128933 0.997745 175.4547 120.6388 108.3098 9.0 10.0
C/2009 K2 (Catalina)
E C 2000 2010 02 07.5089 3.246168 0.997818 147.6986 123.8052 66.8218 10.0 10.0
C/2009 K3 (Beshore)
E C 2000 2011 01 09.266 3.90156 1.00000 251.413 0.032 146.680 8.5 10.0
C/2009 K4 (Gibbs)
E C 2000 2009 06 19.3669 1.549026 0.963334 127.4612 30.1201 34.8264 13.0 10.0
C/2009 K5 (McNaught)
E C 2000 2010 04 30.0194 1.422371 1.000822 66.1725 257.8562 103.8784 7.5 10.0
C/2009 O2 (Catalina)
E C 2000 2010 03 24.4062 0.695375 0.997468 133.4060 310.2309 107.9574 11.0 10.0
P/2009 O3 (Hill)
E C 2000 2009 05 18.5747 2.449937 0.686636 154.5450 183.7644 16.2178 12.5 10.0
C/2009 O4 (Hill)
E C 2000 2010 01 01.2817 2.563791 1.000903 223.7321 172.9388 95.8292 10.0 10.0
C/2009 P1 (Garradd)
E C 2000 2011 12 24.1647 1.550134 0.999890 90.7970 325.9677 106.2447 4.0 10.0
C/2009 P2 (Boattini)
E C 2000 2010 02 10.6248 6.543868 1.001636 76.0493 60.3723 163.4536 6.0 10.0
P/2009 Q1 (Hill)
E C 2000 2009 07 03.8083 2.788798 0.496114 157.8435 174.0871 14.4382 11.5 10.0
P/2009 Q4 (Boattini)
E C 2000 2009 11 19.9226 1.320848 0.579115 320.0122 127.6717 10.9691 15.5 10.0
P/2009 Q5 (McNaught)
E C 2000 2009 09 08.5509 2.918549 0.608871 209.2689 160.1409 40.9058 10.0 10.0
P/2009 QG31 (La Sagra)
E C 2000 2009 10 10.3996 2.147831 0.398905 5.9191 346.2592 5.0554 14.0 10.0
C/2009 R1 (McNaught)
E C 2000 2010 07 02.6345 0.404913 1.000426 130.6999 322.6287 77.0248 8.0 10.0
P/2009 S2 (McNaught)
E C 2000 2009 06 23.6355 2.203702 0.470272 230.3770 121.6126 28.4490 14.0 10.0
C/2009 S3 (Lemmon)
E C 2000 2011 12 10.343 6.48092 1.00000 129.636 225.114 60.385 6.5 10.0
P/2009 SK280 (Spacewatch-Hill)
E C 2000 2009 05 23.7493 4.199477 0.120539 328.2127 36.4076 16.8110 11.0 10.0
C/2009 T1 (McNaught)
E C 2000 2009 10 08.4396 6.220732 0.998802 282.5450 54.3985 89.8971 6.5 10.0
P/2009 T2 (La Sagra)
E C 2000 2010 01 12.8469 1.754825 0.769125 215.4725 215.9852 28.1096 14.0 10.0
C/2009 T3 (LINEAR)
E C 2000 2010 01 12.0672 2.281092 0.999309 32.4515 60.0929 148.7414 12.5 10.0
C/2009 U1 (Garradd)
E C 2000 2010 07 07.819 2.96357 1.00000 6.404 67.196 68.944 10.5 10.0
C/2009 U3 (Hill)
E C 2000 2010 03 20.2541 1.414473 0.991628 77.6991 49.3229 51.2627 13.0 10.0
P/2009 U4 (McNaught)
E C 2000 2009 09 09.0742 1.648932 0.675141 259.8979 55.6955 10.0928 14.0 10.0
C/2009 U5 (Grauer)
E C 2000 2010 06 22.9169 6.093475 0.999392 23.8537 121.1744 25.4743 7.0 10.0
C/2009 W2 (Boattini)
E C 2000 2010 05 01.7599 6.907170 0.999808 121.3343 199.5812 164.4903 7.0 10.0
C/2009 Y1 (Catalina)
E C 2000 2011 01 28.9359 2.520218 0.993109 127.4017 160.2756 107.3152 9.0 10.0
P/2009 Y2 (Kowalski)
E C 2000 2010 03 30.6982 2.339083 0.640091 171.9611 262.1295 29.9282 13.0 10.0
P/2010 A1 (Hill)
E C 2000 2009 08 06.9343 1.949859 0.554199 13.1405 47.4073 10.3324 13.0 10.0
P/2010 A2 (LINEAR)
E C 2000 2009 12 04.2280 2.011929 0.123091 133.2818 320.1150 5.2937 15.5 10.0
P/2010 A3 (Hill)
E C 2000 2010 04 03.6834 1.621834 0.732109 41.2820 64.8293 15.0281 14.0 10.0
C/2010 A4 (Siding Spring)
E C 2000 2010 10 07.775 2.74132 1.00000 271.507 346.736 96.797 10.5 10.0
P/2010 A5 (LINEAR)
E C 2000 2010 04 19.397 1.71122 0.66251 306.775 277.906 5.783 13.0 10.0
C/2010 B1 (Cardinal)
E C 2000 2011 02 06.889 2.94261 1.00000 211.474 277.200 101.996 7.5 10.0
P/2010 B2 (WISE)
E C 2000 2009 12 20.8910 1.606972 0.463138 155.4007 0.6617 8.8897 17.0 10.0
P/2010 C1 (Scotti)
E C 2000 2009 12 01.2703 5.235048 0.258847 3.6353 142.0341 9.1426 9.5 10.0